Tracking 35274 objects as of 10-Sep-2026
HD Live streaming from Space Station
objects crossing your sky now

SL-4 R/B


SL-4 R/B is no longer on orbit


NORAD ID: 58149
Int'l Code: 2023-165B
Launch date: October 27, 2023
Source: Commonwealth of Independent States (former USSR) (CIS)
Launch site: PLESETSK MISSILE AND SPACE COMPLEX (PKMTR)
Decay date: 2024-04-13

Note: This is a ROCKET BODY
Your satellite tracking list
Your tracking list is empty




NASA's NSSDC Master Catalog

Two Line Element Set (TLE):
1 58149U 23165B   24103.74619244  .11679795  63911-5  14851-3 0  9993
2 58149  67.0857 314.9296 0041191 276.5388 207.0127 16.44865811 25988
Source of the keplerian elements: AFSPC